Regional Weather Roundup
Issued by NWS Newport/Morehead, NC

Current Version | Previous Version | Graphics & Text | Print | Product List | Glossary Off
Versions: 1 2 3 4 5 6 7 8 9 10 11 12 13 14 15 16 17 18 19 20 21 22 23 24 25 26 27 28 29 30 31 32 33 34 35 36 37 38 39 40 41 42 43 44 45 46 47 48 49 50

000
ASUS42 KMHX 012113
RWRMHX
WEATHER ROUNDUP FOR EASTERN NORTH CAROLINA
NATIONAL WEATHER SERVICE NEWPORT/MOREHEAD CITY NC
500 PM EDT SUN MAY 01 2016

NOTE: "FAIR" INDICATES FEW OR NO CLOUDS BELOW 12,000 FEET
WITH NO SIGNIFICANT WEATHER AND/OR OBSTRUCTIONS TO VISIBILITY

NCZ015>017-031-032-045>047-102-103-012200-
NORTH COAST

CITY           SKY/WX    TMP DP  RH WIND       PRES   REMARKS
EDENTON        PTSUNNY   74  70  88 SW12      30.04S
ELIZABETH CITY CLOUDY    74  68  81 S8        30.01F
KITTY HAWK     CLOUDY    76  64  67 S7        30.03F
MANTEO         NOT AVBL

$$

NCZ045>047-081-094-103-104-012200-
CENTRAL COAST

CITY           SKY/WX    TMP DP  RH WIND       PRES   REMARKS
FRISCO         CLOUDY    73  66  78 SW6       30.09F
SWANQUARTER    NOT AVBL

$$

NCZ095-097-098-100-101-012200-
SOUTHERN COAST

CITY           SKY/WX    TMP DP  RH WIND       PRES   REMARKS
BEAUFORT       CLOUDY    73  65  75 SW9       30.07F
CEDAR ISLAND   NOT AVBL
JACKSONVILLE   LGT RAIN  70  67  90 S9        30.03F
PINEY ISLAND   NOT AVBL
WILMINGTON     CLOUDY    71  68  90 CALM      30.07F


$$

NCZ011>013-027>030-043-044-078>080-089-090>093-098-012200-
COASTAL PLAIN

CITY           SKY/WX    TMP DP  RH WIND       PRES   REMARKS
AHOSKIE        CLOUDY    72  65  80 S9        30.02F
CLINTON        CLOUDY    74  68  81 S6        30.03F
ELIZABETHTOWN  CLOUDY    72  69  89 S7        30.04S
GOLDSBORO      MOSUNNY   75  72  88 S8        30.01F
GREENVILLE     CLOUDY    72  68  88 S10       30.05F
HAVELOCK       CLOUDY    73  64  73 S10G17    30.06F
KENANSVILLE    CLOUDY    71  66  82 SE6       30.04F
KINSTON        CLOUDY    73  68  83 S10       30.04F
NEW BERN       LGT RAIN  72  65  78 S7        30.06F
RICHLANDS      CLOUDY    70  68  93 S8        30.05F
ROCKY MOUNT    MOSUNNY   75  66  73 S12       30.02F
WASHINGTON     CLOUDY    70  66  86 SW6       30.05F
WHITEVILLE     CLOUDY    68  65  89 S5        30.06R

$$

AMZ130-135-150-152-154-156-158-170-250-252-270-ANZ085-086-088-633-658-670-012200-
MARINE OBSERVATIONS

STATION/POSITION TIME  TEMP    WIND        PRES    WAVE   SWELL
                       AIR SEA DIR/SP/G            HT/PER HT/PER
                 (UTC) (F)     (DEG/KT/KT) (MB)    (FT/S) (FT/S)
CHESAPEAKE LIGHT 2100   59     180/ 15/ 15 1016.9
64 E VA BEACH    2050   59 53  180/ 14/ 16 1017.0    4/ 8   3/ 8
DUCK             2000   72 67  190/  9/ 11 1016.8
2 E DUCK         2011      60                N/A     4/ 9   2/11
OREGON INLET     2000   70 63  180/ 10/ 12 1018.2
13E OREGON INLT  2100      60                N/A     4/10   3/10
HATTERAS CG      2000   74 67  170/  6/ 11 1018.8
DIAMOND BUOY     2050   74 74  190/ 16/ 17 1018.6    4/10   3/10
CAPE LOOKOUT     2100   72     220/  5/  8 1018.3
BEAUFORT LAB     2000   74 66  230/  4/  8 1018.4
30 SE NEW RVR IN 2025      72                N/A     4/10   2/11
27 SE WRIGHTSVLE 2008   74 72  190/  4/  6 1018.3
5 SE WRIGHTSVLE  2008   70 70   40/  6/ 12 1019.3
225 S CAPE HAT   2050   73     140/  8/ 10 1020.0    4/10   5/10
41 SE CHARLESTON 2050   76 74  170/  8/ 10 1017.2    4/ 7   3/ 7

$$




USA.gov is the U.S. government's official web portal to all federal, state and local government web resources and services.